This is the latest recevied weather packets stored in our database for station/object EA3ABN-1. If no packets are shown the sender has not sent any weather packets the latest 10 day(s).
| Time | Temp. | Humidity | Pressure | Rain* | Wind** | Luminosity | Snow |
|---|---|---|---|---|---|---|---|
| 1777349696 | 21.11° C | 32% | 1012.1 hPa | - | - | - | - |
| 1777344581 | 22.22° C | 31% | 1012.5 hPa | - | - | - | - |
| 1777343096 | 22.22° C | 32% | 1012.6 hPa | - | - | - | - |
| 1777337381 | 23.33° C | 32% | 1013.4 hPa | - | - | - | - |
| 1777337081 | 23.33° C | 32% | 1013.4 hPa | - | - | - | - |
| 1777336781 | 23.33° C | 32% | 1013.4 hPa | - | - | - | - |
| 1777333781 | 24.44° C | 32% | 1013.7 hPa | - | - | - | - |
| 1777332880 | 24.44° C | 32% | 1013.9 hPa | - | - | - | - |
| 1777331380 | 24.44° C | 32% | 1014 hPa | - | - | - | - |
| 1777328380 | 24.44° C | 32% | 1014.2 hPa | - | - | - | - |
| 1777327780 | 24.44° C | 32% | 1014.2 hPa | - | - | - | - |
| 1777323580 | 25.56° C | 32% | 1014.5 hPa | - | - | - | - |
| 1777322980 | 26.11° C | 32% | 1014.6 hPa | - | - | - | - |
| 1777321780 | 26.67° C | 32% | 1014.7 hPa | - | - | - | - |
| 1777321180 | 26.67° C | 32% | 1014.6 hPa | - | - | - | - |
| 1777320295 | 26.67° C | 32% | 1014.6 hPa | - | - | - | - |
| 1777319980 | 26.67° C | 32% | 1014.6 hPa | - | - | - | - |
| 1777316980 | 27.78° C | 33% | 1014.2 hPa | - | - | - | - |
| 1777316080 | 27.78° C | 32% | 1013.9 hPa | - | - | - | - |
| 1777315780 | 27.78° C | 32% | 1014 hPa | - | - | - | - |
| 1777313380 | 28.33° C | 32% | 1013.6 hPa | - | - | - | - |
| 1777313080 | 28.89° C | 32% | 1013.6 hPa | - | - | - | - |
| 1777306180 | 31.67° C | 32% | 1013.4 hPa | - | - | - | - |
| 1777304980 | 32.22° C | 33% | 1013.3 hPa | - | - | - | - |
| 1777304080 | 33.33° C | 32% | 1013.1 hPa | - | - | - | - |
* Rain since midnight (hover to see other rain measurements)
** Current wind speed in m/s (hover to see current wind gust speed)